This is the latest recevied weather packets stored in our database for station/object AG1T-20. If no packets are shown the sender has not sent any weather packets the latest 10 day(s).
| Time | Temp. | Humidity | Pressure | Rain* | Wind** | Luminosity | Snow |
|---|---|---|---|---|---|---|---|
| 1788033605 | 19.44° C | 62% | 1020.8 hPa | 0 mm | - | 153 W/m² | - |
| 1788033005 | 18.89° C | 64% | 1020.3 hPa | 0 mm | - | 143 W/m² | - |
| 1788032405 | 20° C | 60% | 1020.3 hPa | 0 mm | - | 264 W/m² | - |
| 1788031805 | 20.56° C | 59% | 1020.3 hPa | 0 mm | - | 366 W/m² | - |
| 1788031205 | 19.44° C | 64% | 1020.3 hPa | 0 mm | - | 445 W/m² | - |
| 1788030605 | 17.78° C | 71% | 1020.3 hPa | 0 mm | - | 176 W/m² | - |
| 1788030005 | 17.22° C | 72% | 1020.3 hPa | 0 mm | - | 164 W/m² | - |
| 1788029405 | 17.22° C | 73% | 1020.8 hPa | 0.25 mm | - | 175 W/m² | - |
| 1788028805 | 17.22° C | 74% | 1020.8 hPa | 0.51 mm | - | 182 W/m² | - |
| 1788028205 | 18.89° C | 63% | 1020.8 hPa | 0.76 mm | - | 182 W/m² | - |
| 1788027605 | 17.78° C | 71% | 1020.8 hPa | 1.02 mm | - | 97 W/m² | - |
| 1788027005 | 17.22° C | 73% | 1020.8 hPa | 1.02 mm | - | 77 W/m² | - |
| 1788026405 | 16.67° C | 72% | 1020.8 hPa | 1.27 mm | - | 57 W/m² | - |
| 1788025805 | 16.11° C | 76% | 1022.8 hPa | 2.03 mm | - | 40 W/m² | - |
| 1788025204 | 16.11° C | 79% | 1022.8 hPa | 2.54 mm | - | 27 W/m² | - |
| 1788024605 | 15.56° C | 82% | 1022.8 hPa | 2.54 mm | - | 31 W/m² | - |
| 1788024005 | 16.11° C | 81% | 1022.8 hPa | 2.54 mm | - | 40 W/m² | - |
| 1788023405 | 15.56° C | 84% | 1022.8 hPa | 2.54 mm | - | 41 W/m² | - |
| 1788022804 | 15.56° C | 87% | 1022.8 hPa | 2.29 mm | - | 38 W/m² | - |
| 1788022205 | 15.56° C | 88% | 1020.8 hPa | 1.27 mm | - | 12 W/m² | - |
| 1788021605 | 16.11° C | 89% | 1020.8 hPa | 0.51 mm | - | 12 W/m² | - |
| 1788021005 | 16.67° C | 85% | 1020.8 hPa | 0.25 mm | - | 16 W/m² | - |
| 1788020405 | 17.22° C | 82% | 1020.8 hPa | 0 mm | - | 26 W/m² | - |
| 1788019805 | 17.78° C | 81% | 1020.8 hPa | 0 mm | - | 38 W/m² | - |
| 1788019205 | 17.22° C | 84% | 1020.8 hPa | 0 mm | - | 124 W/m² | - |
* Rain latest hour (hover to see other rain measurements)
** Current wind speed in m/s (hover to see current wind gust speed)